Date String (YYYY-MM-DD hh:mm:ss) UTC,Instrument flags,absolute air pressure of the measurement (hPa),sample flow rate (lpm),inlet stack bypass flow (lpm),air temperature of the measurement (°C),ambient temperature measured by the external sensor (°C),aerosol sample conditioner tube jacket temperature (°C),OPC LED temperature (°C),internal box temperature (°C),relative humidity of the measurement (%),span deviation,mass concentration of particles derived from Lorenz-Mie calculation of OPC scattering (μg/m³),mass concentration of particles derived from Lorenz-Mie calculation of OPC scattering (μg/m³),mass concentration of particles derived from Lorenz-Mie calculation of OPC scattering (μg/m³)
DateTimeUTC,F1_M11,P_M11,Q1_M11,Q2_M11,T1_M11,T2_M11,T3_M11,T4_M11,T5_M11,U1_M11,ZSPAN_M11,X2_M11,X0_M11,X1_M11
2023-11-22 10:00:00,SystemResetWarning,0833.7,5.00,000.00,021.0,020.1,000.0,029.3,022.1,10.0,0000.0,0000.39,0001.13,0000.33
2023-11-22 10:01:00,SystemResetWarning,0833.6,4.99,000.00,021.0,020.1,000.0,029.3,022.1,10.0,0000.0,0000.40,0000.67,0000.34
2023-11-22 10:02:00,SystemResetWarning,0833.6,5.00,000.00,021.0,020.1,000.0,029.3,022.1,10.0,0000.0,0000.41,0000.58,0000.34
2023-11-22 10:03:00,SystemResetWarning,0833.5,5.01,000.00,021.0,020.1,000.0,029.3,022.2,10.0,0000.0,0000.40,0000.55,0000.35
2023-11-22 10:04:00,SystemResetWarning,0833.5,5.01,000.00,021.0,020.1,000.0,029.3,022.1,10.0,0000.0,0000.41,0000.62,0000.35
2023-11-22 10:05:00,SystemResetWarning,0833.5,5.00,000.00,021.0,020.1,000.0,029.3,022.1,10.0,0000.0,0000.41,0000.64,0000.35
2023-11-22 10:06:00,SystemResetWarning,0833.5,4.99,000.00,021.0,020.1,000.0,029.3,022.1,10.0,0000.0,0000.42,0000.64,0000.35
2023-11-22 10:07:00,SystemResetWarning,0833.4,4.99,000.00,021.0,020.1,000.0,029.3,022.1,10.0,0000.0,0000.42,0000.64,0000.34
2023-11-22 10:08:00,SystemResetWarning,0833.4,5.01,000.00,020.9,020.1,000.0,029.3,022.1,10.0,0000.0,0000.42,0000.66,0000.34
2023-11-22 10:09:00,SystemResetWarning,0833.4,5.00,000.00,020.9,020.1,000.0,029.3,022.1,10.1,0000.0,0000.44,0000.72,0000.35
2023-11-22 10:10:00,SystemResetWarning,0833.4,5.00,000.00,020.9,020.1,000.0,029.3,022.1,10.1,0000.0,0000.44,0001.31,0000.35
2023-11-22 10:11:00,SystemResetWarning,0833.4,4.99,000.00,020.9,020.1,000.0,029.3,022.0,10.1,0000.0,0000.43,0001.57,0000.34
2023-11-22 10:12:00,SystemResetWarning,0833.4,5.00,000.00,020.9,020.0,000.0,029.3,022.0,10.0,0000.0,0000.43,0001.58,0000.34
2023-11-22 10:13:00,SystemResetWarning,0833.4,5.00,000.00,020.9,020.0,000.0,029.3,022.0,10.0,0000.0,0000.42,0001.57,0000.33
2023-11-22 10:14:00,SystemResetWarning,0833.4,4.99,000.00,020.9,020.0,000.0,029.3,022.0,10.0,0000.0,0000.44,0001.62,0000.33
2023-11-22 10:15:00,SystemResetWarning,0833.4,5.00,000.00,020.9,020.0,000.0,029.3,022.0,10.0,0000.0,0000.46,0001.63,0000.33
2023-11-22 10:16:00,SystemResetWarning,0833.3,5.00,000.00,020.9,020.0,000.0,029.3,022.0,10.0,0000.0,0000.48,0001.65,0000.32
2023-11-22 10:17:00,SystemResetWarning,0833.2,5.00,000.00,020.9,020.0,000.0,029.3,022.0,10.1,0000.0,0000.46,0001.64,0000.32
2023-11-22 10:18:00,SystemResetWarning,0833.3,5.00,000.00,020.9,020.0,000.0,029.3,022.0,10.1,0000.0,0000.46,0001.63,0000.32
2023-11-22 10:19:00,SystemResetWarning,0833.2,4.99,000.00,020.9,020.0,000.0,029.3,022.0,10.1,0000.0,0000.46,0001.62,0000.32
2023-11-22 10:20:00,SystemResetWarning,0833.2,5.00,000.00,020.9,020.0,000.0,029.2,022.0,10.1,0000.0,0000.44,0001.56,0000.32
2023-11-22 10:21:00,SystemResetWarning,0833.2,5.00,000.00,020.9,020.0,000.0,029.2,022.0,10.0,0000.0,0000.43,0001.04,0000.32
2023-11-22 10:22:00,SystemResetWarning,0833.3,5.00,000.00,020.9,020.0,000.0,029.2,022.0,10.1,0000.0,0000.42,0000.65,0000.32
2023-11-22 10:23:00,SystemResetWarning,0833.2,5.00,000.00,020.9,020.0,000.0,029.2,022.0,10.1,0000.0,0000.41,0000.61,0000.31
2023-11-22 10:24:00,SystemResetWarning,0833.2,5.00,000.00,020.9,020.0,000.0,029.2,022.0,10.1,0000.0,0000.42,0000.62,0000.32
2023-11-22 10:25:00,SystemResetWarning,0833.2,5.00,000.00,020.8,020.0,000.0,029.2,022.0,10.1,0000.0,0000.40,0000.60,0000.32
2023-11-22 10:26:00,SystemResetWarning,0833.2,5.00,000.00,020.8,020.0,000.0,029.2,022.0,10.1,0000.0,0000.36,0000.52,0000.31
2023-11-22 10:27:00,SystemResetWarning,0833.2,5.00,000.00,020.8,020.0,000.0,029.2,022.0,10.1,0000.0,0000.35,0000.48,0000.31
2023-11-22 10:28:00,SystemResetWarning,0833.2,5.00,000.00,020.8,020.0,000.0,029.2,021.9,10.1,0000.0,0000.35,0000.52,0000.31
2023-11-22 10:29:00,SystemResetWarning,0833.6,5.00,000.00,020.8,020.0,000.0,029.2,021.9,10.0,0000.0,0000.36,0000.58,0000.31
2023-11-22 10:30:00,SystemResetWarning,0833.2,5.01,000.00,020.8,020.0,000.0,029.2,021.9,10.0,0000.0,0000.35,0000.57,0000.31
2023-11-22 10:31:00,SystemResetWarning,0833.1,5.00,000.00,020.8,020.0,000.0,029.2,021.9,10.0,0000.0,0000.36,0000.58,0000.30
2023-11-22 10:32:00,SystemResetWarning,0833.2,4.99,000.00,020.8,020.0,000.0,029.2,021.9,10.0,0000.0,0000.36,0000.59,0000.31
2023-11-22 10:33:00,SystemResetWarning,0833.1,5.00,000.00,020.8,020.0,000.0,029.2,021.9,10.0,0000.0,0000.36,0000.60,0000.31
2023-11-22 10:34:00,SystemResetWarning,0833.0,5.01,000.00,020.8,020.0,000.0,029.2,021.9,10.0,0000.0,0000.36,0000.60,0000.31
2023-11-22 10:35:00,SystemResetWarning,0833.0,5.01,000.00,020.8,020.0,000.0,029.2,021.9,10.0,0000.0,0000.36,0000.60,0000.30
2023-11-22 10:36:00,SystemResetWarning,0832.9,4.99,000.00,020.8,019.9,000.0,029.2,021.9,10.0,0000.0,0000.36,0000.61,0000.30
2023-11-22 10:37:00,SystemResetWarning,0832.9,4.99,000.00,020.8,020.0,000.0,029.2,022.0,10.0,0000.0,0000.37,0000.64,0000.31
2023-11-22 10:38:00,SystemResetWarning,0833.0,4.99,000.00,020.8,019.9,000.0,029.1,022.0,10.0,0000.0,0000.37,0000.64,0000.31
2023-11-22 10:39:00,SystemResetWarning,0833.2,5.01,000.00,020.8,019.9,000.0,029.1,021.9,10.0,0000.0,0000.37,0000.60,0000.30
2023-11-22 10:40:00,SystemResetWarning,0833.3,5.01,000.00,020.8,019.9,000.0,029.1,021.9,10.0,0000.0,0000.37,0000.60,0000.31
2023-11-22 10:41:00,SystemResetWarning,0833.3,5.00,000.00,020.8,019.9,000.0,029.1,021.9,10.0,0000.0,0000.39,0000.63,0000.32
2023-11-22 10:42:00,SystemResetWarning,0833.2,4.99,000.00,020.8,019.9,000.0,029.1,021.9,10.0,0000.0,0000.39,0000.63,0000.31
2023-11-22 10:43:00,SystemResetWarning,0833.0,4.99,000.00,020.8,019.9,000.0,029.1,021.9,10.0,0000.0,0000.40,0000.65,0000.32
2023-11-22 10:44:00,SystemResetWarning,0832.9,5.00,000.00,020.8,019.9,000.0,029.1,021.9,10.0,0000.0,0000.41,0000.67,0000.31
2023-11-22 10:45:00,SystemResetWarning,0832.8,4.99,000.00,020.8,019.9,000.0,029.1,022.0,10.0,0000.0,0000.41,0000.68,0000.31
2023-11-22 10:46:00,SystemResetWarning,0832.9,5.00,000.00,020.8,020.0,000.0,029.1,022.0,9.9,0000.0,0000.41,0000.65,0000.31
2023-11-22 10:47:00,SystemResetWarning,0832.8,5.00,000.00,020.8,019.9,000.0,029.1,021.9,10.0,0000.0,0000.39,0000.60,0000.31
2023-11-22 10:48:00,SystemResetWarning,0832.8,5.00,000.00,020.8,019.9,000.0,029.1,021.9,10.0,0000.0,0000.38,0000.58,0000.30
2023-11-22 10:49:00,SystemResetWarning,0832.7,5.01,000.00,020.8,019.9,000.0,029.1,021.9,9.9,0000.0,0000.38,0000.55,0000.31
2023-11-22 10:50:00,SystemResetWarning,0832.7,5.00,000.00,020.8,019.9,000.0,029.1,021.9,9.9,0000.0,0000.37,0000.53,0000.30
2023-11-22 10:51:00,SystemResetWarning,0832.7,5.00,000.00,020.8,019.9,000.0,029.1,021.9,9.9,0000.0,0000.35,0000.48,0000.30
2023-11-22 10:52:00,SystemResetWarning,0832.7,4.99,000.00,020.8,019.9,000.0,029.1,021.9,10.0,0000.0,0000.35,0000.48,0000.29
2023-11-22 10:53:00,SystemResetWarning,0832.7,4.99,000.00,020.8,019.9,000.0,029.1,021.9,10.0,0000.0,0000.35,0000.48,0000.29
2023-11-22 10:54:00,SystemResetWarning,0832.7,5.00,000.00,020.8,019.9,000.0,029.1,021.9,10.0,0000.0,0000.33,0000.44,0000.28
2023-11-22 10:55:00,SystemResetWarning,0832.7,4.99,000.00,020.8,019.9,000.0,029.1,021.9,10.0,0000.0,0000.32,0000.44,0000.28
2023-11-22 10:56:00,SystemResetWarning,0832.7,5.00,000.00,020.7,019.9,000.0,029.1,021.9,9.9,0000.0,0000.34,0000.47,0000.29
2023-11-22 10:57:00,SystemResetWarning,0832.7,5.01,000.00,020.7,019.9,000.0,029.1,021.9,10.2,0000.0,0000.35,0000.51,0000.29
2023-11-22 10:58:00,SystemResetWarning,0832.7,5.00,000.00,020.8,020.0,000.0,029.1,022.0,10.4,0000.0,0000.36,0000.54,0000.29
2023-11-22 10:59:00,SystemResetWarning,0832.6,5.00,000.00,020.8,020.0,000.0,029.1,022.0,10.3,0000.0,0000.37,0000.54,0000.29
